Regional Weather Roundup
Issued by NWS

Home | Current Version | Previous Version | Text Only | Print | Product List | Glossary On
Versions: 1 2 3 4 5 6 7 8 9 10 11 12 13 14 15 16 17 18 19 20 21 22 23 24 25 26 27 28 29 30 31 32 33 34 35 36 37 38 39 40 41 42 43 44 45 46 47 48 49 50
000
ASUS43 KLSX 301607
RWRMO

WEATHER SUMMARY FOR MISSOURI
NATIONAL WEATHER SERVICE SPRINGFIELD MO
1100 AM CDT THU OCT 30 2014

NOTE: "FAIR" INDICATES FEW OR NO CLOUDS BELOW 12,000 FEET WITH NO
       SIGNIFICANT WEATHER AND/OR OBSTRUCTIONS TO VISIBILITY.
       CURRENT SKY AND/OR WEATHER CONDITIONS ARE NOT AVAILABLE FOR
       CHILLICOTHE AND FARMINGTON.

MOZ001>031-035>038-043-044-053-054-301700-
...NORTHERN AND WESTERN MISSOURI...

CITY           SKY/WX    TMP DP  RH WIND       PRES   REMARKS
KANSAS CTY INT MOSUNNY   58  42  55 NW12      30.02S
KANSAS C DTWN  MOSUNNY   60  42  51 W7        30.02S
LEE`S SUMMIT   PTSUNNY   54  43  66 SW5       30.02F
ST JOSEPH      SUNNY     58  41  53 NW10      30.03S
CHILLICOTHE      N/A     53  41  63 S3        30.03F
KIRKSVILLE     PTSUNNY   48  41  76 NW10      30.04R

$$
MOZ066>068-077>081-088>096-101>105-301700-
...SOUTHWEST MISSOURI...

CITY           SKY/WX    TMP DP  RH WIND       PRES   REMARKS
SPRINGFIELD    LGT RAIN  50  44  80 E8        30.10R
JOPLIN         PTSUNNY   62  44  51 SW23G29   30.07F

$$
MOZ032>034-039>042-045>050-055>058-069>072-301700-
...CENTRAL MISSOURI...

CITY           SKY/WX    TMP DP  RH WIND       PRES   REMARKS
COLUMBIA       CLOUDY    47  38  71 S10       30.07F
JEFFERSON CITY LGT RAIN  49  37  63 E7        30.09F
ROLLA          CLOUDY    54  35  48 S12       30.10S
SEDALIA        PTSUNNY   58  44  60 SW12      30.06S
WHITEMAN AFB   LGT RAIN  55  44  66 S12       30.03F
OSAGE BEACH    CLOUDY    46  39  76 CALM      30.10F

$$
MOZ051-052-059>065-301700-
...EAST CENTRAL MISSOURI...

CITY           SKY/WX    TMP DP  RH WIND       PRES   REMARKS
ST LOUIS INTL  LGT RAIN  50  38  63 S6        30.14F
SPIRIT OF STL  PTSUNNY   48  41  76 SE3       30.12F
ST CHARLES     CLOUDY    50  41  71 S6        30.13F

$$
MOZ072>076-082>087-097>100-106>115-301700-
...SOUTH CENTRAL AND SOUTHEAST MISSOURI...

CITY           SKY/WX    TMP DP  RH WIND       PRES   REMARKS
CAPE GIRARDEAU SUNNY     54  40  59 S8        30.17S
FARMINGTON     SUNNY     54  39  58 S10       30.16S
POPLAR BLUFF   SUNNY     55  40  56 S7        30.16S
WEST PLAINS    SUNNY     55  35  47 S5        30.14F

$$



USA.gov is the U.S. government's official web portal to all federal, state and local government web resources and services.